Regional Weather Roundup
Issued by NWS Cleveland, OH

Home | Current Version | Previous Version | Text Only | Print | Product List | Glossary Off
Versions: 1 2 3 4 5 6 7 8 9 10 11 12 13 14 15 16 17 18 19 20 21 22 23 24 25 26 27 28 29 30 31 32 33 34 35 36 37 38 39 40 41 42 43 44 45 46 47 48 49 50

000
ASUS41 KCLE 230110
RWRCLE
OHIO REGIONAL WEATHER ROUNDUP
NATIONAL WEATHER SERVICE CLEVELAND, OH
900 PM EDT WED MAR 22 2017

NOTE: "FAIR" INDICATES FEW OR NO CLOUDS BELOW 12,000 FEET WITH NO
SIGNIFICANT WEATHER AND/OR OBSTRUCTIONS TO VISIBILITY.

OHZ001>008-015>018-024>027-034-035-043-044-230200-
   NORTHWEST OHIO

CITY           SKY/WX    TMP DP  RH WIND       PRES   REMARKS
DEFIANCE       CLOUDY    29  16  58 E6        30.52S WCI  23
FINDLAY        PTCLDY    29  13  51 E8        30.51F WCI  21
TOLEDO EXPRESS CLEAR     28  15  58 E5        30.53S WCI  23
TOLEDO EXEC    PTCLDY    27  16  63 E7        30.55S WCI  19
LIMA           PTCLDY    29  18  63 NE9       30.50R WCI  20
$$

OHZ009>014-019>023-028>033-038-089-230200-
   NORTHEAST OHIO

CITY           SKY/WX    TMP DP  RH WIND       PRES   REMARKS
CLE-HOPKINS    CLEAR     27  12  53 N3        30.57S
CLE-LAKEFRONT  CLEAR     27  13  55 CALM      30.55S
CUY CO. ARPT   PTCLDY    25  12  58 NW5       30.55S WCI  19
LORAIN-ELYRIA  CLEAR     25  12  58 NE3       30.55S
ASHTABULA      CLEAR     24  12  60 W3        30.54R
AKRON-CANTON   CLEAR     26  10  50 N7        30.51R WCI  18
WOOSTER        CLEAR     25  14  63 NE7       30.52R WCI  17
MANSFIELD      CLEAR     25  13  60 NE7       30.50S WCI  17
YOUNGSTOWN     PTCLDY    23   8  52 N10       30.51R WCI  12
$$

OHZ042-051>053-060>062-070>072-077>081-230200-
  SOUTHWEST OHIO

CITY           SKY/WX    TMP DP  RH WIND       PRES   REMARKS
CINC-COVINGTON PTCLDY    36  20  52 E14       30.45R
CINC-LUNKEN    PTCLDY    35  22  58 NE6       30.48S
HAMILTON       PTCLDY    36  21  54 E9        30.49R
DAYTON         PTCLDY    31  17  56 E8        30.48R WCI  23
WRIGHT-PAT AFB CLEAR     31  17  54 NE8       30.48S WCI  24
DAYTON GENERAL CLEAR     32  19  58 NE8       30.46R WCI  25
WILMINGTON     PTCLDY    30  22  72 NE9       30.46R WCI  22
$$

OHZ036-037-039>041-045>050-054>059-063>069-073>076-082>088-230200-
  CENTRAL AND SOUTHEAST OHIO

CITY           SKY/WX    TMP DP  RH WIND       PRES   REMARKS
COLUMBUS       PTCLDY    33  16  49 NE9       30.47S WCI  25
OSU AIRPORT    CLEAR     30  17  58 N10       30.48R WCI  21
BOLTON FIELD   CLEAR     31  19  60 N8        30.49R WCI  23
RICKENBACK AFB CLEAR     31  16  54 NE7       30.48R WCI  24
NEWARK         CLEAR     33  13  43 N7        30.48R WCI  27
MARION         CLEAR     26  16  65 NE10      30.51S WCI  16
LANCASTER      CLEAR     33  19  56 NE8       30.47S WCI  26
ZANESVILLE     CLEAR     33  12  41 N6        30.48S WCI  28
NEW PHILLY     NOT AVBL
$$




USA.gov is the U.S. government's official web portal to all federal, state and local government web resources and services.